Regional Weather Roundup
Issued by NWS Northern Indiana

Home | Current Version | Previous Version | Graphics & Text | Print | Product List | Glossary On
Versions: 1 2 3 4 5 6 7 8 9 10 11 12 13 14 15 16 17 18 19 20 21 22 23 24 25 26 27 28 29 30 31 32 33 34 35 36 37 38 39 40 41 42 43 44 45 46 47 48 49 50
000
ASUS43 KIWX 190410
RWRIWX

KIWX WEATHER ROUNDUP
NATIONAL WEATHER SERVICE NORTHERN INDIANA
1100 PM EST THU DEC 18 2014

NOTE: "FAIR" INDICATES FEW OR NO CLOUDS BELOW 12,000 FEET WITH NO
SIGNIFICANT WEATHER AND/OR OBSTRUCTIONS TO VISIBILITY.

* THESE STATIONS ARE NOT UNDER NWS QUALITY CONTROL. THEY ALSO MAY NOT
  REPORT WEATHER SUCH AS PRECIPITATION OR FOG.

INZ001>027-190500-
NORTHERN INDIANA

CITY           SKY/WX    TMP DP  RH WIND       PRES   REMARKS
GARY*          CLOUDY    29  18  61 SW3       30.27R
VALPARAISO     CLOUDY    25  19  78 W6        30.25S WCI  18
MICHIGAN CITY* CLOUDY    28  18  64 SW9       30.25R WCI  20
LAPORTE*       CLOUDY    28  22  78 SW6       30.25S WCI  22
KNOX*          CLOUDY    26  18  71 NW5       30.25R WCI  20
SOUTH BEND     CLOUDY    28  20  71 SW9       30.23S WCI  19
GOSHEN         CLOUDY    27  21  78 W7        30.22S WCI  19
MONTICELLO*    CLOUDY    25  21  82 W3        30.26R
LOGANSPORT*    CLOUDY    27  19  74 NW3       30.26S
ROCHESTER*     CLOUDY    30  25  80 W3        30.25R
WARSAW*        CLOUDY    28  23  80 W5        30.23S WCI  23
ANGOLA*        CLOUDY    27  23  86 W5        30.19S WCI  21
FORT WAYNE     CLOUDY    27  22  81 W9        30.23S WCI  18
HUNTINGTON*    CLOUDY    26  22  86 W7        30.23S WCI  18
PERU/GRISSOM   CLOUDY    26  23  89 NW5       30.24S WCI  20
MARION*        CLOUDY    26  22  86 NW6       30.25S WCI  19

$$
INZ028>050-190500-
CENTRAL INDIANA

CITY           SKY/WX    TMP DP  RH WIND       PRES   REMARKS
LAFAYETTE      PTCLDY    23  19  85 NW3       30.27S
KOKOMO*        CLOUDY    27  18  69 NW7       30.25S WCI  19
MUNCIE*        CLOUDY    26  22  84 NW7       30.23S WCI  18
INDIANAPOLIS   PTCLDY    24  20  84 W5        30.25R WCI  18

$$
MIZ043>046-050>051-056>058-064>065-071>073-077>080-190500-
SOUTHWEST LOWER MICHIGAN

CITY           SKY/WX    TMP DP  RH WIND       PRES   REMARKS
BATTLE CREEK   CLOUDY    29  25  85 SW8       30.19S FOG     WCI  21
BENTON HARBOR  CLOUDY    30  29  96 NW6       30.21S WCI  24
COLDWATER*     CLOUDY    27  26  95 W6        30.20R FOG     WCI  20
HILLSDALE*     CLOUDY    28  28  99 W6        30.18R FOG     WCI  21
HOLLAND        CLOUDY    31  23  72 N7        30.22R WCI  24
GRAND RAPIDS   CLOUDY    29  23  78 N7        30.20R WCI  22
KALAMAZOO      CLOUDY    28  24  85 SW8       30.20S FOG     WCI  20
STURGIS*       CLOUDY    27  23  86 SW6       30.20S WCI  20
THREE RIVERS*  CLOUDY    28  23  82 W5        30.21S WCI  23

$$
OHZ001>008-015>018-024>025-190500-
NORTHWEST OHIO

CITY           SKY/WX    TMP DP  RH WIND       PRES   REMARKS
WAUSEON*       CLOUDY    28  27  93 W8        30.20S WCI  20
DEFIANCE       CLOUDY    29  24  82 NW5       30.22S WCI  24
FINDLAY        CLOUDY    29  24  82 SW7       30.20R WCI  22
TOLEDO EXPRESS CLOUDY    29  25  85 W10       30.20S WCI  20
TOLEDO METCALF CLOUDY    31  25  78 W8        30.21R WCI  23
LIMA           CLOUDY    30  23  75 W7        30.21R HAZE    WCI  23

$$
AND FOR LAKE MICHIGAN COASTAL AND OPEN LAKE BUOY OBSERVATIONS

STATION/POSITION TEMP    WIND        PRES    VSBY  WAVE
                 AIR SEA DIR/SP/G                  HT/PER
                 (F)     (DEG/KT/KT) (MB)    (MI)  (FT/S)
CALUMET HARBOR    28     230/  5/  6 1023.2S
SAINT JOSEPH      32     320/ 10/ 14 1023.4F

$$
&&


USA.gov is the U.S. government's official web portal to all federal, state and local government web resources and services.